Aiken, SC

11:59 PM EDT on September 24, 2017 (GMT -0400)
Aiken Municipal

Weather History for KAIK - March, 2012

Change the Weather History Date:

Monday, March 5, 2012

  Actual Average Record
Temperature  
Mean Temperature 48 °F -  
Max Temperature 60 °F 69 °F 78 °F (2015)
Min Temperature 37 °F 42 °F 32 °F (2014)
Degree Days  
Heating Degree Days 16    
Moisture  
Dew Point 30 °F    
Average Humidity 46    
Maximum Humidity 81    
Minimum Humidity 27    
Precipitation  
Precipitation 0.00 in - - ()
Sea Level Pressure  
Sea Level Pressure 30.18 in    
Wind  
Wind Speed 12 mph (WSW)    
Max Wind Speed 25 mph    
Max Gust Speed 38 mph    
Visibility 10 miles    
Events      
Averages and records for this station are not official NWS values.
T = Trace of Precipitation, MM = Missing Value Source: NWS Daily Summary

Daily Weather History Graph

Daily Weather History Graph

Search for Another Location

Airport or City:

Trip Planner

Search our weather history database for the weather conditions in past years. The results will help you decide how hot, cold, wet, or windy it might be!

Date:

Astronomy

Mar. 05, 2012 Rise Set
Actual Time 6:49 AM EST 6:27 PM EST
Civil Twilight 6:24 AM EST 6:52 PM EST
Nautical Twilight 5:55 AM EST 7:20 PM EST
Astronomical Twilight 5:27 AM EST 7:49 PM EST
Moon 3:50 PM EST (3/5) 4:40 AM EST (3/5)
Length of Visible Light 12h 27m
Length of Day
11h 37m
Waxing Gibbous, 91% of the Moon is Illuminated
Mar 5
Waxing Gibbous
Mar 8
Full
Mar 14
Last Quarter
Mar 22
New
Mar 30
First Quarter

Hourly Weather History & Observations

Time (EST) Temp. Windchill Dew Point Humidity Pressure Visibility Wind Dir Wind Speed Gust Speed Precip Events Conditions
12:15 AM 37.4 °F 33.8 °F 30.2 °F 75% 30.12 in 10.0 mi South 4.6 mph - N/A   Clear
12:35 AM 37.4 °F 31.4 °F 30.2 °F 75% 30.12 in 10.0 mi South 8.1 mph - N/A   Clear
12:55 AM 37.4 °F 32.8 °F 32.0 °F 81% 30.13 in 10.0 mi South 5.8 mph - N/A   Clear
1:15 AM 37.4 °F 32.8 °F 30.2 °F 75% 30.13 in 10.0 mi SSW 5.8 mph - N/A   Clear
1:35 AM 39.2 °F 34.2 °F 30.2 °F 70% 30.12 in 10.0 mi South 6.9 mph - N/A   Clear
1:55 AM 39.2 °F 34.2 °F 30.2 °F 70% 30.12 in 10.0 mi South 6.9 mph - N/A   Clear
2:15 AM 39.2 °F 33.0 °F 30.2 °F 70% 30.11 in 10.0 mi South 9.2 mph - N/A   Clear
2:35 AM 41.0 °F 35.2 °F 30.2 °F 65% 30.11 in 10.0 mi SSW 9.2 mph - N/A   Clear
2:55 AM 41.0 °F 34.7 °F 30.2 °F 65% 30.10 in 10.0 mi SSW 10.4 mph - N/A   Clear
3:15 AM 42.8 °F 37.5 °F 30.2 °F 61% 30.09 in 10.0 mi South 9.2 mph - N/A   Clear
3:35 AM 42.8 °F 37.0 °F 30.2 °F 61% 30.08 in 10.0 mi SSW 10.4 mph - N/A   Clear
3:55 AM 42.8 °F 36.6 °F 30.2 °F 61% 30.07 in 10.0 mi SSW 11.5 mph - N/A   Clear
4:15 AM 42.8 °F 36.6 °F 30.2 °F 61% 30.06 in 10.0 mi SSW 11.5 mph 17.3 mph N/A   Clear
4:35 AM 42.8 °F 37.5 °F 30.2 °F 61% 30.06 in 10.0 mi SSW 9.2 mph - N/A   Clear
4:55 AM 42.8 °F 35.4 °F 30.2 °F 61% 30.05 in 10.0 mi SSW 15.0 mph 20.7 mph N/A   Clear
5:15 AM 42.8 °F 35.8 °F 30.2 °F 61% 30.05 in 10.0 mi SSW 13.8 mph 20.7 mph N/A   Clear
5:35 AM 42.8 °F 35.8 °F 30.2 °F 61% 30.05 in 10.0 mi SSW 13.8 mph 18.4 mph N/A   Clear
5:55 AM 42.8 °F 35.8 °F 30.2 °F 61% 30.05 in 10.0 mi SSW 13.8 mph 18.4 mph N/A   Clear
6:15 AM 44.6 °F 37.8 °F 30.2 °F 57% 30.06 in 10.0 mi SW 15.0 mph 18.4 mph N/A   Clear
6:35 AM 44.6 °F 37.8 °F 32.0 °F 61% 30.07 in 10.0 mi SW 15.0 mph - N/A   Clear
6:55 AM 46.4 °F 39.5 °F 32.0 °F 57% 30.08 in 10.0 mi SW 17.3 mph 24.2 mph N/A   Clear
7:15 AM 46.4 °F 38.7 °F 32.0 °F 57% 30.08 in 10.0 mi SW 20.7 mph 25.3 mph N/A   Clear
7:35 AM 48.2 °F - 32.0 °F 54% 30.08 in 10.0 mi SW 17.3 mph 25.3 mph N/A   Clear
7:55 AM 50.0 °F - 32.0 °F 50% 30.10 in 10.0 mi SW 16.1 mph 24.2 mph N/A   Clear
8:15 AM 50.0 °F - 32.0 °F 50% 30.10 in 10.0 mi SW 17.3 mph 25.3 mph N/A   Clear
8:35 AM 51.8 °F - 32.0 °F 47% 30.10 in 10.0 mi WSW 21.9 mph 28.8 mph N/A   Clear
9:15 AM 55.4 °F - 33.8 °F 44% 30.13 in 10.0 mi WSW 16.1 mph 27.6 mph N/A   Clear
9:35 AM 57.2 °F - 33.8 °F 41% 30.13 in 10.0 mi West 23.0 mph 29.9 mph N/A   Clear
9:55 AM 59.0 °F - 33.8 °F 39% 30.13 in 10.0 mi West 24.2 mph 29.9 mph N/A   Clear
10:15 AM 59.0 °F - 33.8 °F 39% 30.15 in 10.0 mi West 19.6 mph 34.5 mph N/A   Clear
10:35 AM 59.0 °F - 32.0 °F 36% 30.16 in 10.0 mi West 25.3 mph 38.0 mph N/A   Clear
10:55 AM 59.0 °F - 32.0 °F 36% 30.17 in 10.0 mi West 23.0 mph 32.2 mph N/A   Clear
11:15 AM 60.8 °F - 32.0 °F 34% 30.19 in 10.0 mi West 24.2 mph 34.5 mph N/A   Clear
11:35 AM 60.8 °F - 32.0 °F 34% 30.20 in 10.0 mi WNW 16.1 mph 29.9 mph N/A   Clear
11:55 AM 60.8 °F - 30.2 °F 31% 30.22 in 10.0 mi WNW 20.7 mph 33.4 mph N/A   Clear
12:15 PM 60.8 °F - 28.4 °F 29% 30.23 in 10.0 mi West 19.6 mph 32.2 mph N/A   Clear
12:35 PM 60.8 °F - 26.6 °F 27% 30.23 in 10.0 mi WNW 21.9 mph 27.6 mph N/A   Clear
12:55 PM 60.8 °F - 26.6 °F 27% 30.24 in 10.0 mi West 17.3 mph 28.8 mph N/A   Clear
1:15 PM 60.8 °F - 28.4 °F 29% 30.25 in 10.0 mi WNW 16.1 mph 32.2 mph N/A   Clear
1:35 PM 60.8 °F - 28.4 °F 29% 30.25 in 10.0 mi WNW 13.8 mph 24.2 mph N/A   Clear
1:55 PM 59.0 °F - 28.4 °F 31% 30.25 in 10.0 mi WNW 11.5 mph 23.0 mph N/A   Clear
2:15 PM 60.8 °F - 28.4 °F 29% 30.25 in 10.0 mi West 16.1 mph 29.9 mph N/A   Clear
2:35 PM 59.0 °F - 28.4 °F 31% 30.25 in 10.0 mi WNW 15.0 mph 23.0 mph N/A   Clear
2:55 PM 60.8 °F - 28.4 °F 29% 30.25 in 10.0 mi West 20.7 mph 26.5 mph N/A   Clear
3:15 PM 60.8 °F - 28.4 °F 29% 30.26 in 10.0 mi WNW 13.8 mph 21.9 mph N/A   Clear
3:35 PM 60.8 °F - 28.4 °F 29% 30.27 in 10.0 mi West 15.0 mph 32.2 mph N/A   Clear
3:55 PM 60.8 °F - 28.4 °F 29% 30.27 in 10.0 mi West 16.1 mph 24.2 mph N/A   Clear
4:15 PM 60.8 °F - 28.4 °F 29% 30.28 in 10.0 mi West 16.1 mph 24.2 mph N/A   Clear
4:35 PM 59.0 °F - 28.4 °F 31% 30.29 in 10.0 mi WNW 9.2 mph - N/A   Clear
4:55 PM 59.0 °F - 26.6 °F 29% 30.30 in 10.0 mi West 15.0 mph 20.7 mph N/A   Clear
5:15 PM 59.0 °F - 26.6 °F 29% 30.31 in 10.0 mi WNW 12.7 mph 18.4 mph N/A   Clear
5:35 PM 59.0 °F - 26.6 °F 29% 30.32 in 10.0 mi WNW 11.5 mph 16.1 mph N/A   Clear
5:55 PM 57.2 °F - 26.6 °F 31% 30.33 in 10.0 mi WNW 10.4 mph 16.1 mph N/A   Clear
6:15 PM 55.4 °F - 26.6 °F 33% 30.35 in 10.0 mi WNW 5.8 mph - N/A   Clear
6:35 PM 53.6 °F - 26.6 °F 35% 30.36 in 10.0 mi WNW 4.6 mph - N/A   Clear
6:55 PM 51.8 °F - 26.6 °F 38% 30.37 in 10.0 mi West 3.5 mph - N/A   Clear
7:15 PM 51.8 °F - 26.6 °F 38% 30.38 in 10.0 mi West 3.5 mph - N/A   Clear
7:35 PM 48.2 °F - 28.4 °F 46% 30.39 in 10.0 mi Calm Calm - N/A   Clear
7:55 PM 46.4 °F - 30.2 °F 53% 30.40 in 10.0 mi Calm Calm - N/A   Clear
8:15 PM 48.2 °F - 28.4 °F 46% 30.41 in 10.0 mi North 4.6 mph - N/A   Clear
8:35 PM 48.2 °F - 26.6 °F 43% 30.42 in 10.0 mi NNW 4.6 mph - N/A   Clear
8:55 PM 44.6 °F 41.4 °F 28.4 °F 53% 30.44 in 10.0 mi NNE 5.8 mph - N/A   Clear
9:15 PM 46.4 °F 42.9 °F 28.4 °F 50% 30.45 in 10.0 mi NE 6.9 mph - N/A   Clear
9:35 PM 44.6 °F 41.4 °F 28.4 °F 53% 30.46 in 10.0 mi NE 5.8 mph - N/A   Clear
9:55 PM 42.8 °F 39.3 °F 28.4 °F 57% 30.47 in 10.0 mi NE 5.8 mph - N/A   Clear
10:15 PM 42.8 °F 39.3 °F 28.4 °F 57% 30.48 in 10.0 mi NE 5.8 mph - N/A   Clear
10:35 PM 42.8 °F 40.1 °F 28.4 °F 57% 30.49 in 10.0 mi NNE 4.6 mph - N/A   Clear
10:55 PM 42.8 °F 40.1 °F 26.6 °F 53% 30.50 in 10.0 mi NE 4.6 mph - N/A   Clear
11:15 PM 41.0 °F 38.0 °F 26.6 °F 57% 30.51 in 10.0 mi NE 4.6 mph - N/A   Clear
11:35 PM 41.0 °F 38.0 °F 26.6 °F 57% 30.51 in 10.0 mi ENE 4.6 mph - N/A   Clear
11:55 PM 41.0 °F 37.1 °F 26.6 °F 57% 30.51 in 10.0 mi NE 5.8 mph - N/A   Clear